Rome, GA

2:05 AM EDT on October 21, 2019 (GMT -0400)
Russell

Weather History for KRMG - September, 2019

Change the Weather History Date:

Tuesday, September 17, 2019

  Actual Average Record
Temperature  
Mean Temperature 82 °F 72 °F  
Max Temperature 100 °F 84 °F 95 °F (2010)
Min Temperature 64 °F 60 °F 45 °F (2000)
Degree Days  
Heating Degree Days 0 0  
Month to date heating degree days 0 0  
Since 1 July heating degree days 0 0  
Cooling Degree Days 17 7  
Month to date cooling degree days 282 157  
Year to date cooling degree days 2041 1523  
Growing Degree Days 32 (Base 50)    
Moisture  
Dew Point 64 °F    
Average Humidity 59    
Maximum Humidity 93    
Minimum Humidity 32    
Precipitation  
Precipitation 0.00 in 0.11 in 0.87 in (2012)
Month to date precipitation T 1.75  
Year to date precipitation 42.45 37.17  
Sea Level Pressure  
Sea Level Pressure 29.96 in    
Wind  
Wind Speed 2 mph ()    
Max Wind Speed 14 mph    
Max Gust Speed 17 mph    
Visibility 10.0 miles    
Events      
T = Trace of Precipitation, MM = Missing Value Source: Averaged Metar Reports

Daily Weather History Graph

Daily Weather History Graph

Search for Another Location

Airport or City:

Astronomy

Sep. 17, 2019 Rise Set
Actual Time 7:25 AM EDT 7:44 PM EDT
Civil Twilight 6:59 AM EDT 8:09 PM EDT
Nautical Twilight 6:30 AM EDT 8:39 PM EDT
Astronomical Twilight 6:00 AM EDT 9:09 PM EDT
Moon 9:55 PM EDT (9/17) 10:22 AM EDT (9/17)
Length of Visible Light 13h 10m
Length of Day
12h 19m
Waning Gibbous, 89% of the Moon is Illuminated
Sep 17
Waning Gibbous
Sep 21
Last Quarter
Sep 28
New
Oct 5
First Quarter
Oct 13
Full

Hourly Weather History & Observations

Time (EDT) Temp. Heat Index Dew Point Humidity Pressure Visibility Wind Dir Wind Speed Gust Speed Precip Events Conditions
12:53 AM 71.1 °F - 63.0 °F 75% 29.98 in 10.0 mi Calm Calm - N/A   Clear
1:53 AM 70.0 °F - 63.0 °F 78% 29.98 in 10.0 mi Calm Calm - N/A   Clear
3:53 AM 66.9 °F - 63.0 °F 87% 29.96 in 10.0 mi Calm Calm - N/A   Clear
4:53 AM 66.9 °F - 62.1 °F 84% 29.96 in 10.0 mi Calm Calm - N/A   Clear
5:53 AM 66.0 °F - 62.1 °F 87% 29.97 in 10.0 mi NE 3.5 mph - N/A   Clear
6:53 AM 64.9 °F - 62.1 °F 90% 29.98 in 10.0 mi Calm Calm - N/A   Clear
7:53 AM 64.9 °F - 62.1 °F 90% 30.00 in 10.0 mi Calm Calm - N/A   Clear
8:53 AM 71.1 °F - 64.9 °F 81% 30.01 in 10.0 mi Calm Calm - N/A   Clear
9:53 AM 77.0 °F - 64.9 °F 66% 30.01 in 10.0 mi Calm Calm - N/A   Clear
10:53 AM 86.0 °F 88.2 °F 66.0 °F 51% 30.01 in 10.0 mi Calm Calm - N/A   Clear
11:53 AM 93.0 °F 94.6 °F 64.0 °F 38% 30.01 in 10.0 mi Variable 3.5 mph - N/A   Clear
12:53 PM 95.0 °F 97.4 °F 64.9 °F 37% 29.99 in 10.0 mi Variable 4.6 mph - N/A   Clear
1:53 PM 99.0 °F 102.3 °F 64.9 °F 33% 29.96 in 10.0 mi Variable 4.6 mph - N/A   Partly Cloudy
2:53 PM 98.1 °F 100.7 °F 64.0 °F 33% 29.94 in 10.0 mi NNE 8.1 mph - N/A   Partly Cloudy
3:53 PM 99.0 °F 102.3 °F 64.9 °F 33% 29.91 in 10.0 mi North 9.2 mph - N/A   Scattered Clouds
4:53 PM 98.1 °F 100.7 °F 64.0 °F 33% 29.90 in 10.0 mi West 9.2 mph - N/A   Partly Cloudy
5:53 PM 97.0 °F 98.3 °F 63.0 °F 32% 29.89 in 10.0 mi NNW 9.2 mph - N/A   Partly Cloudy
6:53 PM 96.1 °F 97.3 °F 63.0 °F 33% 29.89 in 10.0 mi North 4.6 mph - N/A   Clear
7:53 PM 90.0 °F 90.6 °F 63.0 °F 40% 29.90 in 10.0 mi WNW 4.6 mph - N/A   Clear
8:53 PM 86.0 °F 87.3 °F 64.0 °F 48% 29.92 in 10.0 mi NNW 3.5 mph - N/A   Clear
9:53 PM 79.0 °F - 66.0 °F 64% 29.94 in 10.0 mi NE 3.5 mph - N/A   Clear
10:53 PM 77.0 °F - 66.9 °F 71% 29.95 in 10.0 mi Calm Calm - N/A   Clear
11:53 PM 73.9 °F - 66.0 °F 76% 29.95 in 10.0 mi Calm Calm - N/A   Clear